[[{"header":{"parameterUnit":"m.s-1","parameterCategory":1,"la1":30.2991,"la2":30.254,"lo1":-89.0895,"lo2":-89.0444,"dy":0.0017,"dx":0.0017,"nx":28,"ny":28,"refTime":"2025-04-08T21:00:00:Z","depth":0,"parameterNumber":2,"parameterNumberName":"U-component_of_WINDS"},"data":[0,0,0,0,0,0,0,0,0,0,0,0,0,0,0,0,0,0,0,0,0,0,0,0,0,0,0,0,0,0,0,0,0,0,0,0,0,0,0,0,0,0,0,0,0,0,0,0,0,0,0,0,0,0,0,0,0,0,2.8454,2.8455,0,2.8575,2.8576,2.8578,2.86,2.8599,2.8598,2.8597,2.8727,2.8731,2.8736,0,0,0,0,0,0,0,0,0,0,0,0,0,2.8249,2.8253,2.8454,2.8455,2.8457,2.8575,2.8576,2.8578,2.86,2.8599,2.8598,2.8597,2.8726,2.8731,2.8736,0,0,0,0,0,0,0,0,0,0,0,0,0,2.8351,2.8254,2.8453,2.8482,2.8486,2.8574,2.8576,2.8578,2.8601,2.8599,2.8598,2.8596,2.8724,2.873,2.8737,2.8807,0,0,2.8757,2.876,0,0,0,0,0,0,0,0,2.8345,2.8358,2.8476,2.848,2.8485,2.8571,2.8552,2.8655,2.8601,2.8557,2.8597,2.8596,2.8677,2.8687,2.8713,2.8813,2.8819,2.8758,2.8762,2.8764,2.8766,0,0,0,0,0,0,0,2.8338,2.8353,2.8502,2.8478,2.8483,2.8491,2.8504,2.8571,2.8624,2.8561,2.8563,2.8577,2.8679,2.8707,2.8716,2.8821,2.8757,2.8763,2.8767,2.877,2.8986,2.8988,0,0,0,0,0,0,2.8325,2.8347,2.8498,2.8505,2.841,2.8496,2.851,2.8545,2.8623,2.8634,2.8578,2.8577,2.8696,2.8709,2.8721,2.8809,2.8764,2.877,2.8774,2.8985,2.8987,2.8989,0,0,0,0,0,0,2.832,2.8338,2.8493,2.8427,2.8447,2.8501,2.854,2.8548,2.8576,2.8636,2.8646,2.8596,2.8696,2.8712,2.8786,2.8814,2.8773,2.8779,2.8982,2.8985,2.8988,2.8985,0,0,0,0,0,0,2.8314,2.8336,2.8362,2.8427,2.8451,2.8553,2.8541,2.8551,2.8586,2.8587,2.8656,2.8666,2.8696,2.8776,2.8792,2.8822,2.8785,2.898,2.8984,2.8987,2.8982,2.8987,2.8991,0,0,0,0,0,2.8307,2.8357,2.8363,2.8381,2.8483,2.8555,2.8568,2.86,2.8589,2.8616,2.8655,2.8664,2.8808,2.8783,2.8802,2.8834,2.8978,2.8983,2.8987,2.8981,2.8986,2.8991,0,0,0,0,0,0,2.8295,2.8366,2.8373,2.8445,2.8494,2.8558,2.8593,2.8604,2.8658,2.8656,2.8695,2.8711,2.8782,2.8816,2.8787,2.8907,2.8893,2.8901,2.8882,2.8888,2.8892,2.8882,2.879,0,0,0,0,0,2.83,2.835,2.8411,2.8469,2.8492,2.8539,2.8571,2.8591,2.8643,2.8664,2.8709,2.8761,2.8818,2.8855,2.8911,2.8988,2.9004,2.902,2.9024,2.9027,2.9033,2.9078,2.9086,2.9002,2.9002,2.9002,0,0,2.8312,2.8357,2.8387,2.8467,2.8507,2.856,2.8556,2.8612,2.8652,2.8674,2.8745,2.878,2.8841,2.8917,2.8952,2.8947,2.906,2.9032,2.9034,2.9039,2.9083,2.9091,2.9098,2.9005,2.9004,2.9004,0,0,2.8361,2.84,2.8452,2.8492,2.8552,2.8583,2.8596,2.866,2.8683,2.8755,2.8773,2.8823,2.892,2.8963,2.8998,2.9066,2.9077,2.9083,2.9104,2.9147,2.9154,2.916,2.9184,2.9192,2.909,2.909,2.909,0,2.8368,2.8447,2.8479,2.8534,2.857,2.8591,2.8646,2.8684,2.876,2.8785,2.8778,2.8901,2.8944,2.903,2.9047,2.9074,2.9092,2.9075,2.915,2.9156,2.9163,2.9186,2.9195,2.909,2.909,2.909,2.909,0,2.8454,2.8508,2.8544,2.8615,2.8655,2.871,2.8753,2.879,2.8808,2.884,2.8915,2.8967,2.9034,2.9057,2.9075,2.9147,2.9141,2.9142,2.9128,2.917,2.9193,2.9202,2.909,2.909,2.909,2.909,0,0,2.8496,2.8585,2.8597,2.863,2.8699,2.8743,2.8801,2.8865,2.8896,2.8949,2.8999,2.9082,2.9083,2.9122,2.9146,2.9184,2.9235,2.918,2.9182,2.9188,2.9318,2.9316,2.9326,2.9243,2.9245,2.9247,2.9313,0,2.8552,2.8652,2.8684,2.8768,2.882,2.8842,2.8893,2.8942,2.8974,2.9025,2.9062,2.912,2.9117,2.9141,2.9179,2.922,2.9261,2.9216,2.9291,2.9293,2.9274,2.9338,2.9336,2.9396,2.9322,2.9323,2.9325,0,2.8631,2.8683,2.8772,2.8836,2.8859,2.8903,2.8965,2.9013,2.907,2.9091,2.9136,2.9157,2.922,2.9204,2.9293,2.9261,2.9295,2.932,2.9323,2.933,2.931,2.9347,2.9416,2.9424,2.9339,2.9338,2.9337,0,2.8652,2.8745,2.8811,2.8839,2.8914,2.8945,2.8979,2.9034,2.9071,2.9127,2.9152,2.9215,2.9249,2.9299,2.9337,2.9322,2.9423,2.941,2.9443,2.9442,2.9462,2.946,2.9537,2.9485,2.9485,2.9485,2.9485,0,2.8711,2.8765,2.8821,2.8861,2.8923,2.8961,2.9022,2.9057,2.9107,2.9156,2.918,2.9226,2.9275,2.9328,2.9359,2.9428,2.9444,2.9464,2.9472,2.9461,2.9459,2.9483,2.9479,2.9487,2.9487,2.9486,2.9486,0,2.8744,2.8784,2.8857,2.8923,2.8941,2.8984,2.9042,2.9083,2.9117,2.9179,2.9196,2.9251,2.9315,2.9358,2.9441,2.9462,2.9537,2.9544,2.9517,2.952,2.9551,2.9547,2.9645,2.966,2.9599,2.9599,2.96,0,2.8778,2.882,2.889,2.8924,2.8957,2.9012,2.905,2.909,2.9129,2.9198,2.9231,2.9297,2.9351,2.9453,2.9501,2.9565,2.9574,2.9604,2.9584,2.9572,2.9574,2.957,2.9575,2.9606,2.9607,2.9607,2.9608,0,2.8835,2.8853,2.8905,2.8966,2.901,2.906,2.911,2.9138,2.9187,2.923,2.9295,2.9337,2.9421,2.9486,2.9555,2.9592,2.9609,2.9614,2.9625,2.9614,2.9596,2.9606,2.9524,2.9611,2.9611,2.961,2.961,2.961,2.8869,2.8908,2.8963,2.9022,2.9064,2.9111,2.9153,2.9193,2.9247,2.9317,2.9338,2.9406,2.9465,2.9559,2.9597,2.9652,2.965,2.9666,2.967,2.9673,2.9672,2.9588,2.9665,2.9665,2.9665,2.9665,2.9665,0,2.8927,2.8964,2.9018,2.9087,2.9133,2.9144,2.9201,2.924,2.9298,2.9351,2.9404,2.948,2.9544,2.9597,2.9664,2.9698,2.9707,2.9714,2.9711,2.972,2.9671,2.9654,2.9705,2.9705,2.9705,2.9705,2.9705,2.9705,2.8962,2.9027,2.9053,2.9141,2.9178,2.9243,2.9275,2.9319,2.9361,2.9444,2.9497,2.9531,2.9585,2.9656,2.9716,2.9731,2.9754,2.9759,2.9775,2.9728,2.9723,2.9719,2.9703,2.9764,2.9764,2.9819,2.9819,2.982]},{"header":{"parameterUnit":"m.s-1","parameterCategory":1,"la1":30.2991,"la2":30.254,"lo1":-89.0895,"lo2":-89.0444,"dy":0.0017,"dx":0.0017,"nx":28,"ny":28,"refTime":"2025-04-08T21:00:00:Z","depth":0,"parameterNumber":3,"parameterNumberName":"V-component_of_WINDS"},"data":[0,0,0,0,0,0,0,0,0,0,0,0,0,0,0,0,0,0,0,0,0,0,0,0,0,0,0,0,0,0,0,0,0,0,0,0,0,0,0,0,0,0,0,0,0,0,0,0,0,0,0,0,0,0,0,0,0,0,3.3402,3.3403,0,3.3503,3.3504,3.3506,3.353,3.3529,3.3528,3.3528,3.3624,3.3627,3.363,0,0,0,0,0,0,0,0,0,0,0,0,0,3.322,3.3223,3.3402,3.3403,3.3404,3.3503,3.3504,3.3506,3.353,3.3529,3.3528,3.3527,3.3623,3.3627,3.363,0,0,0,0,0,0,0,0,0,0,0,0,0,3.3308,3.3224,3.3402,3.3428,3.3432,3.3503,3.3504,3.3506,3.353,3.3529,3.3528,3.3527,3.3622,3.3626,3.3631,3.368,0,0,3.3645,3.3648,0,0,0,0,0,0,0,0,3.3303,3.3314,3.3423,3.3427,3.3431,3.3503,3.3476,3.3564,3.353,3.3492,3.3528,3.3527,3.3584,3.3592,3.3613,3.3685,3.3689,3.3646,3.3649,3.3651,3.3652,0,0,0,0,0,0,0,3.3297,3.331,3.3442,3.3425,3.3429,3.3432,3.3444,3.3493,3.3542,3.3496,3.3498,3.351,3.3586,3.3608,3.3615,3.369,3.3646,3.365,3.3653,3.3655,3.3804,3.3805,0,0,0,0,0,0,3.3287,3.3305,3.3438,3.3445,3.3363,3.3436,3.3449,3.3481,3.3542,3.355,3.3511,3.3511,3.36,3.361,3.3619,3.3679,3.3651,3.3655,3.3658,3.3803,3.3804,3.3806,0,0,0,0,0,0,3.3283,3.3299,3.3434,3.3375,3.3393,3.3441,3.3476,3.3483,3.3506,3.3553,3.3561,3.3525,3.36,3.3612,3.3665,3.3682,3.3657,3.3662,3.3802,3.3803,3.3805,3.38,0,0,0,0,0,0,3.3278,3.3297,3.3319,3.3376,3.3396,3.3481,3.3477,3.3486,3.3515,3.3516,3.3569,3.3576,3.36,3.3657,3.3669,3.3688,3.3665,3.38,3.3803,3.3804,3.3798,3.3801,3.3803,0,0,0,0,0,3.3271,3.3312,3.332,3.3336,3.3424,3.3482,3.3494,3.3522,3.3516,3.3536,3.3566,3.3575,3.3678,3.3662,3.3676,3.3697,3.3799,3.3802,3.3804,3.3797,3.38,3.3803,0,0,0,0,0,0,3.3253,3.332,3.3329,3.339,3.3431,3.3486,3.3513,3.3525,3.3566,3.3565,3.3596,3.3608,3.3658,3.3683,3.3664,3.3746,3.3738,3.3744,3.3728,3.3732,3.3734,3.3726,3.3669,0,0,0,0,0,3.3257,3.3301,3.3356,3.3404,3.3424,3.3465,3.3492,3.351,3.3552,3.3569,3.3603,3.3641,3.3682,3.3708,3.3749,3.3802,3.3812,3.3823,3.3825,3.3827,3.3831,3.3858,3.3863,3.3814,3.3814,3.3814,0,0,3.3264,3.3306,3.3332,3.3402,3.3435,3.3478,3.3479,3.3524,3.3555,3.3575,3.3627,3.3653,3.3697,3.375,3.3775,3.3772,3.3846,3.383,3.3831,3.3834,3.3861,3.3866,3.387,3.3816,3.3815,3.3815,0,0,3.3298,3.3336,3.3379,3.3413,3.3464,3.3491,3.3501,3.3555,3.3574,3.3627,3.3642,3.3677,3.3748,3.3779,3.3803,3.3847,3.3855,3.3859,3.3871,3.3897,3.3901,3.3905,3.3918,3.3923,3.3863,3.3863,3.3863,0,3.33,3.3367,3.3399,3.3444,3.3473,3.3495,3.3537,3.3567,3.3628,3.3646,3.3643,3.3731,3.3762,3.3821,3.3832,3.3852,3.3862,3.3853,3.3898,3.3902,3.3906,3.3919,3.3925,3.3863,3.3863,3.3863,3.3863,0,3.3365,3.3411,3.344,3.35,3.3532,3.3576,3.3611,3.364,3.3655,3.368,3.3733,3.3771,3.3819,3.3834,3.3849,3.3895,3.3891,3.3893,3.3885,3.391,3.3923,3.3929,3.3863,3.3863,3.3863,3.3863,0,0,3.3392,3.3469,3.3479,3.3506,3.3563,3.3598,3.364,3.3689,3.3712,3.3752,3.3787,3.3845,3.3847,3.3875,3.3892,3.3916,3.3946,3.3914,3.3916,3.3918,3.3996,3.3994,3.4,3.3952,3.3953,3.3954,3.3992,0,3.3432,3.3512,3.3541,3.3606,3.3647,3.3667,3.3704,3.3741,3.3766,3.3802,3.3828,3.3869,3.3868,3.3885,3.3909,3.3937,3.3962,3.3935,3.3981,3.3983,3.3969,3.4007,3.4005,3.4039,3.3997,3.3998,3.3999,0,3.349,3.3533,3.3602,3.3653,3.3672,3.3705,3.3751,3.3786,3.3827,3.3843,3.3874,3.389,3.3932,3.3922,3.3979,3.396,3.398,3.3996,3.3998,3.4003,3.3992,3.4011,3.4051,3.4056,3.4007,3.4007,3.4006,0,3.35,3.3576,3.3626,3.3649,3.371,3.3732,3.3758,3.3799,3.3826,3.3865,3.3882,3.3925,3.3947,3.3979,3.4004,3.3995,3.4058,3.4051,3.407,3.4069,3.4082,3.408,3.4124,3.4096,3.4096,3.4096,3.4096,0,3.3542,3.3583,3.3632,3.3663,3.3708,3.374,3.3783,3.381,3.3845,3.388,3.3899,3.3929,3.3962,3.3997,3.4017,3.4059,3.4069,3.4082,3.4086,3.408,3.4078,3.4093,3.4091,3.4098,3.4097,3.4097,3.4097,0,3.3561,3.3596,3.3652,3.3706,3.372,3.3751,3.3795,3.3824,3.3849,3.3892,3.3904,3.3942,3.3984,3.4013,3.4065,3.4079,3.4124,3.4129,3.4111,3.4113,3.413,3.4127,3.4184,3.4193,3.416,3.416,3.416,0,3.3585,3.3617,3.3674,3.37,3.3726,3.3767,3.3795,3.3826,3.3854,3.3903,3.3925,3.3968,3.4004,3.4068,3.4099,3.4139,3.4144,3.4161,3.415,3.4142,3.4143,3.414,3.4143,3.4163,3.4163,3.4163,3.4163,0,3.3622,3.3638,3.3679,3.3726,3.3759,3.3797,3.3834,3.3853,3.389,3.392,3.3963,3.3991,3.4046,3.4087,3.4129,3.4152,3.4163,3.4167,3.4173,3.4166,3.4154,3.4159,3.4114,3.4165,3.4165,3.4165,3.4165,3.4164,3.3644,3.3673,3.3718,3.3762,3.3794,3.3828,3.3858,3.3887,3.3925,3.3974,3.3989,3.4033,3.4071,3.413,3.4153,3.4187,3.4185,3.4195,3.4197,3.4199,3.4198,3.4149,3.4194,3.4194,3.4194,3.4194,3.4194,0,3.3682,3.3711,3.3752,3.3805,3.3839,3.3848,3.389,3.3917,3.3957,3.3993,3.4028,3.4077,3.4117,3.4151,3.4191,3.4211,3.4217,3.422,3.4219,3.4224,3.4197,3.4187,3.4215,3.4215,3.4215,3.4215,3.4215,3.4215,3.3705,3.3754,3.3775,3.3839,3.3867,3.3913,3.3936,3.3966,3.3995,3.405,3.4084,3.4107,3.4141,3.4184,3.422,3.4228,3.4242,3.4244,3.4254,3.4228,3.4226,3.4223,3.4214,3.4247,3.4247,3.4277,3.4278,3.4278]}]]